Location: Mount Wilson Observatory
(34.2257°N, 118.0571°W)
Time: 01:38:57
(UTC-07:00)

ATLAS 3B CENTAUR R/B - Visible Passes

Search period start: 21 April 2014 00:00
Search period end: 01 May 2014 00:00
Orbit: 223 x 8834 km, 28.2° (Epoch: 20 April)

Date Brightness Start Highest point End Pass type
(mag) Time Alt. Az. Time Alt. Az. Time Alt. Az.
21 Apr 5.3 03:15:52 27° S 03:24:00 38° SE 04:03:44 10° ENE visible
22 Apr 5.3 04:26:43 23° SW 04:40:16 58° SSE 05:36:36 10° E visible
23 Apr 5.5 02:28:19 25° SSE 02:32:44 28° SE 02:59:21 10° E visible
23 Apr 5.7 05:37:39 10° WSW 05:59:26 73° SSE 07:06:07 10° E visible
24 Apr 5.0 03:38:17 32° SSW 03:46:31 49° SE 04:31:27 10° E visible
25 Apr 5.7 01:39:07 17° SE 01:40:33 17° ESE 01:53:55 10° E visible
25 Apr 5.3 04:47:47 19° SW 05:02:30 67° SSE 06:01:52 10° E visible
26 Apr 5.0 02:48:13 33° SSE 02:52:19 38° SE 03:24:17 10° ENE visible
27 Apr 4.8 03:56:50 32° SSW 04:05:36 58° SSE 04:53:47 10° E visible
28 Apr 5.3 01:56:31 25° SE 01:57:25 26° SE 02:16:39 10° E visible
28 Apr 5.3 05:05:00 14° WSW 05:21:04 73° SSE 06:22:11 10° E visible
29 Apr 4.7 03:04:16 40° S 03:08:25 47° SE 03:43:34 10° E visible
30 Apr 5.8 01:03:11 13° ESE 01:03:11 13° ESE 01:08:32 10° E visible
30 Apr 4.8 04:11:35 28° SW 04:21:04 66° SSE 05:11:05 10° E visible
